MDBH

Maria Montez International Airport

Airport
ICAO code
MDBH
IATA Code
BRX
Summary
ICAO Region
CARSAM
ICAO Territory
Location

Barahona, Dominican Republic

Serving
Barahona
Elevation
10 ft
Coordinates
18° 14' 57" N , 71° 7' 24" W
KCC
Airport WX
Tropical Revolving Storm
Metar
Observation
MDBH 041600Z 13016KT 9999 FEW018CB SCT022 SCT100 28/21 Q1020 CB/S
Station
Barahona
Date/Time
2023-02-04 16:00:00
Wind direction
130°
Wind speed
16 kts
Lowest cloud amount
few clouds
Temperature
28°C
Dew point
21°C
Humidity
65%
QNH
1020 hPa
Weather condition
n/a

María Montez International Airport is an international airport located in Barahona, Dominican Republic.

Climatology

Tropical savannah climate (Köppen climate classification Aw)

Runways

Designator Length Width Surface Rops
12/30 3000 45 ASP No/No

Airport map

Aerial View

SKYbrary Partners:

Safety knowledge contributed by: